Regional Weather Roundup
Issued by NWS Cleveland, OH

Home | Current Version | Previous Version | Graphics & Text | Print | Product List | Glossary On
Versions: 1 2 3 4 5 6 7 8 9 10 11 12 13 14 15 16 17 18 19 20 21 22 23 24 25 26 27 28 29 30 31 32 33 34 35 36 37 38 39 40 41 42 43 44 45 46 47 48 49 50
503
ASUS41 KCLE 232310
RWRCLE
OHIO REGIONAL WEATHER ROUNDUP
NATIONAL WEATHER SERVICE WILMINGTON, OH
700 PM EDT FRI JUN 23 2017

NOTE: "FAIR" INDICATES FEW OR NO CLOUDS BELOW 12,000 FEET WITH NO
SIGNIFICANT WEATHER AND/OR OBSTRUCTIONS TO VISIBILITY.

OHZ001>008-015>018-024>027-034-035-043-044-240000-
   NORTHWEST OHIO

CITY           SKY/WX    TMP DP  RH WIND       PRES   REMARKS
DEFIANCE       PTSUNNY   72  62  71 NW9       29.67F
FINDLAY        CLOUDY    70  65  84 SW8       29.67S
TOLEDO EXPRESS CLOUDY    73  68  84 W8        29.65S
TOLEDO EXEC    PTSUNNY   74  70  87 SW12      29.66R
LIMA           CLOUDY    69  68  96 W9        29.69S
$$

OHZ009>014-019>023-028>033-038-089-240000-
   NORTHEAST OHIO

CITY           SKY/WX    TMP DP  RH WIND       PRES   REMARKS
CLE-HOPKINS    CLOUDY    75  68  78 W13       29.66R
CLE-LAKEFRONT  FAIR      75  68  78 SW12      29.62S
CUY CO. ARPT   CLOUDY    75  70  83 W9        29.64S
LORAIN-ELYRIA  FAIR      72  62  71 W13G21    29.65S
ASHTABULA      FAIR      74  68  81 W12       29.64R
AKRON-CANTON   LGT RAIN  72  67  84 SW9       29.68R
WOOSTER        LGT RAIN  71  68  90 W9        29.69R
MANSFIELD      PTSUNNY   69  67  93 SW10      29.69S
YOUNGSTOWN     CLOUDY    71  67  87 SW10      29.67R
$$

OHZ042-051>053-060>062-070>072-077>081-240000-
  SOUTHWEST OHIO

CITY           SKY/WX    TMP DP  RH WIND       PRES   REMARKS
CINC-COVINGTON LGT RAIN  69  68  96 E5        29.72R
CINC-LUNKEN    LGT RAIN  68  68 100 S3        29.72R
HAMILTON       LGT RAIN  69  69 100 CALM      29.71F
DAYTON         CLOUDY    68  67  96 SW5       29.71R
WRIGHT-PAT AFB PTSUNNY   69  68  99 S5        29.70S
DAYTON GENERAL LGT RAIN  68  67  96 CALM      29.70S
WILMINGTON     RAIN      66  66 100 S5        29.73R FOG
$$

OHZ036-037-039>041-045>050-054>059-063>069-073>076-082>088-240000-
  CENTRAL AND SOUTHEAST OHIO

CITY           SKY/WX    TMP DP  RH WIND       PRES   REMARKS
COLUMBUS       RAIN      70  69  97 SW6       29.71R FOG
OSU AIRPORT    LGT RAIN  69  69 100 W7        29.72R
BOLTON FIELD   RAIN      68  68 100 SW5       29.73R
RICKENBACK AFB RAIN      67  67 100 S7        29.73R
NEWARK         FAIR      69  67  93 SW8       29.70R
MARION         PTSUNNY   69  66  90 W8        29.70S
LANCASTER      FAIR      68  67  96 SW3       29.74R
ZANESVILLE     LGT RAIN  70  67  90 W8        29.70R
NEW PHILLY     PTSUNNY   70  68  93 VRB3      29.69F
$$




USA.gov is the U.S. government's official web portal to all federal, state and local government web resources and services.